TimeEDT,TemperatureF,Dew PointF,Humidity,Sea Level PressureIn,VisibilityMPH,Wind Direction,Wind SpeedMPH,Gust SpeedMPH,PrecipitationIn,Events,Conditions,WindDirDegrees,DateUTC
12:53 AM,39.0,28.0,65,30.19,10.0,WSW,6.9,-,N/A,,Clear,250,2012-10-11 04:53:00
1:53 AM,37.0,28.9,73,30.19,10.0,WSW,5.8,-,N/A,,Clear,240,2012-10-11 05:53:00
2:53 AM,37.0,28.9,73,30.19,10.0,WSW,5.8,-,N/A,,Clear,240,2012-10-11 06:53:00
3:53 AM,36.0,28.9,76,30.20,10.0,WSW,5.8,-,N/A,,Clear,250,2012-10-11 07:53:00
4:53 AM,36.0,28.9,76,30.20,10.0,WSW,4.6,-,N/A,,Clear,240,2012-10-11 08:53:00
5:53 AM,35.1,28.0,76,30.20,10.0,Calm,Calm,-,N/A,,Clear,0,2012-10-11 09:53:00
6:53 AM,35.1,28.9,78,30.20,10.0,SSW,3.5,-,N/A,,Clear,210,2012-10-11 10:53:00
7:53 AM,35.1,30.0,82,30.21,10.0,SW,4.6,-,N/A,,Clear,220,2012-10-11 11:53:00
8:53 AM,39.0,30.0,70,30.21,10.0,SW,9.2,-,N/A,,Scattered Clouds,220,2012-10-11 12:53:00
9:53 AM,45.0,30.9,58,30.20,10.0,SW,13.8,-,N/A,,Clear,230,2012-10-11 13:53:00
10:53 AM,50.0,30.9,48,30.18,10.0,SW,15.0,23.0,N/A,,Clear,230,2012-10-11 14:53:00
11:53 AM,52.0,30.9,45,30.15,10.0,SW,19.6,31.1,N/A,,Clear,220,2012-10-11 15:53:00
12:53 PM,55.9,30.9,39,30.12,10.0,WSW,19.6,34.5,N/A,,Clear,240,2012-10-11 16:53:00
1:53 PM,57.9,30.9,36,30.08,10.0,SW,20.7,29.9,N/A,,Clear,220,2012-10-11 17:53:00
2:53 PM,60.1,30.9,33,30.05,10.0,SW,24.2,29.9,N/A,,Clear,220,2012-10-11 18:53:00
3:53 PM,61.0,30.0,31,30.04,10.0,SW,21.9,34.5,N/A,,Clear,220,2012-10-11 19:53:00
4:53 PM,61.0,30.0,31,30.03,10.0,WSW,15.0,27.6,N/A,,Clear,240,2012-10-11 20:53:00
5:53 PM,60.8,30.2,31,30.02,10.0,WSW,17.3,24.2,N/A,,Clear,240,2012-10-11 21:53:00
6:53 PM,59.0,30.0,33,30.04,10.0,WSW,12.7,-,N/A,,Clear,240,2012-10-11 22:53:00
7:53 PM,57.0,30.9,37,30.06,10.0,SW,8.1,-,N/A,,Clear,230,2012-10-11 23:53:00
8:53 PM,57.2,30.2,36,30.06,10.0,WSW,12.7,-,N/A,,Scattered Clouds,240,2012-10-12 00:53:00
9:53 PM,54.0,39.9,59,30.12,10.0,NNW,6.9,-,N/A,,Overcast,340,2012-10-12 01:53:00
10:53 PM,51.8,39.2,62,30.13,10.0,NNW,6.9,17.3,N/A,,Overcast,340,2012-10-12 02:53:00
11:24 PM,48.2,37.4,66,30.14,10.0,North,15.0,24.2,N/A,,Overcast,350,2012-10-12 03:24:00
11:53 PM,48.0,37.0,66,30.18,10.0,North,12.7,20.7,N/A,,Overcast,350,2012-10-12 03:53:00